DW8356 Weather Reports


Display with metric or nautical units.
time (UTC)temp
F
wind
direction
speed
MPH
gust
MPH
rain 1hr
in
rain 24hr
in
rain mn
in
humidity
%
barometer
mb
20260831200525 100 209 2.0 10.0 0.00 0.00 0.00 30 1015.9
20260831200050 99 160 2.0 8.0 0.00 0.00 0.00 32 1015.9
20260831195525 99 199 2.0 8.0 0.00 0.00 0.00 32 1015.9
20260831195025 99 188 1.0 8.0 0.00 0.00 0.00 32 1016.0
20260831194547 100 239 2.0 10.0 0.00 0.00 0.00 31 1016.1
20260831194023 99 240 2.0 10.0 0.00 0.00 0.00 31 1016.2
20260831193522 99 207 1.0 10.0 0.00 0.00 0.00 31 1016.2
20260831193052 100 50 1.0 7.0 0.00 0.00 0.00 31 1016.1
20260831192525 100 138 2.0 6.0 0.00 0.00 0.00 32 1016.1
20260831192032 99 82 1.0 9.0 0.00 0.00 0.00 32 1016.2
20260831191545 101 174 4.0 9.0 0.00 0.00 0.00 29 1016.3
20260831191024 103 205 2.0 11.0 0.00 0.00 0.00 30 1016.3
20260831190525 102 159 4.0 11.0 0.00 0.00 0.00 30 1016.3
20260831190105 101 142 2.0 10.0 0.00 0.00 0.00 30 1016.3
20260831185524 99 206 3.0 10.0 0.00 0.00 0.00 31 1016.4
20260831185023 101 203 1.0 9.0 0.00 0.00 0.00 30 1016.4
20260831184546 101 187 2.0 12.0 0.00 0.00 0.00 31 1016.4
20260831184022 102 203 4.0 12.0 0.00 0.00 0.00 30 1016.4
20260831183524 102 209 4.0 12.0 0.00 0.00 0.00 33 1016.5
20260831183057 101 136 1.0 8.0 0.00 0.00 0.00 33 1016.5
20260831182527 101 209 2.0 12.0 0.00 0.00 0.00 32 1016.7
20260831182026 101 159 3.0 12.0 0.00 0.00 0.00 32 1016.7
20260831181545 101 49 2.0 7.0 0.00 0.00 0.00 32 1016.7
20260831181026 101 152 2.0 7.0 0.00 0.00 0.00 34 1016.8
20260831180525 101 180 2.0 8.0 0.00 0.00 0.00 34 1017.0
20260831180046 100 220 1.0 8.0 0.00 0.00 0.00 36 1017.1
20260831175527 100 138 1.0 8.0 0.00 0.00 0.00 36 1017.0
20260831175025 100 0 1.0 7.0 0.00 0.00 0.00 36 1017.2
20260831174549 100 207 1.0 7.0 0.00 0.00 0.00 36 1017.3
20260831174024 99 190 2.0 7.0 0.00 0.00 0.00 36 1017.4
20260831173528 99 188 1.0 6.0 0.00 0.00 0.00 39 1017.5
20260831173048 99 189 1.0 6.0 0.00 0.00 0.00 38 1017.4
20260831172525 99 0 1.0 7.0 0.00 0.00 0.00 38 1017.7
20260831172025 99 74 1.0 7.0 0.00 0.00 0.00 38 1017.8
20260831171545 99 188 1.0 7.0 0.00 0.00 0.00 40 1017.8
20260831171025 98 150 2.0 6.0 0.00 0.00 0.00 40 1017.9
20260831170524 98 0 1.0 3.0 0.00 0.00 0.00 40 1017.9
20260831170043 98 0 1.0 3.0 0.00 0.00 0.00 40 1017.9
20260831165522 98 221 0.0 6.0 0.00 0.00 0.00 40 1017.9
20260831165024 98 225 1.0 6.0 0.00 0.00 0.00 40 1017.9
20260831164602 97 182 1.0 6.0 0.00 0.00 0.00 41 1017.9
20260831164026 97 202 1.0 11.0 0.00 0.00 0.00 41 1017.8
20260831163524 97 134 3.0 11.0 0.00 0.00 0.00 41 1017.8
20260831163049 96 171 1.0 7.0 0.00 0.00 0.00 42 1017.8
20260831162527 95 154 1.0 6.0 0.00 0.00 0.00 42 1017.8
20260831162026 95 130 1.0 4.0 0.00 0.00 0.00 42 1018.0
20260831161546 96 140 1.0 5.0 0.00 0.00 0.00 42 1017.9
20260831161024 96 126 1.0 9.0 0.00 0.00 0.00 41 1017.9
20260831160524 95 125 1.0 9.0 0.00 0.00 0.00 41 1018.0
20260831160050 94 155 1.0 6.0 0.00 0.00 0.00 41 1018.0
20260831155525 94 0 1.0 6.0 0.00 0.00 0.00 42 1018.0
20260831155027 94 188 1.0 6.0 0.00 0.00 0.00 42 1017.9
20260831154619 94 236 0.0 8.0 0.00 0.00 0.00 43 1017.9
20260831154024 93 157 1.0 8.0 0.00 0.00 0.00 44 1017.9
20260831153525 93 222 0.0 8.0 0.00 0.00 0.00 44 1017.8
20260831153047 92 0 1.0 8.0 0.00 0.00 0.00 45 1017.8
20260831152526 92 0 1.0 5.0 0.00 0.00 0.00 46 1017.8
20260831152023 91 0 1.0 4.0 0.00 0.00 0.00 45 1017.8
20260831151542 91 195 1.0 4.0 0.00 0.00 0.00 47 1017.8
20260831151026 91 172 1.0 5.0 0.00 0.00 0.00 47 1017.8
20260831150528 91 0 1.0 5.0 0.00 0.00 0.00 48 1017.7
20260831150047 90 0 1.0 5.0 0.00 0.00 0.00 48 1017.7
20260831145525 90 144 1.0 5.0 0.00 0.00 0.00 49 1017.7
20260831145025 90 190 1.0 7.0 0.00 0.00 0.00 49 1017.7
20260831144545 89 214 1.0 7.0 0.00 0.00 0.00 51 1017.7
20260831144025 88 222 0.0 2.0 0.00 0.00 0.00 53 1017.6
20260831143527 88 167 0.0 2.0 0.00 0.00 0.00 54 1017.7
20260831143109 87 0 0.0 2.0 0.00 0.00 0.00 54 1017.6
20260831142524 87 0 0.0 3.0 0.00 0.00 0.00 55 1017.6
20260831142025 87 223 1.0 3.0 0.00 0.00 0.00 56 1017.5
20260831141547 86 0 0.0 2.0 0.00 0.00 0.00 57 1017.5
20260831141024 86 235 0.0 3.0 0.00 0.00 0.00 58 1017.6
20260831140525 85 208 1.0 3.0 0.00 0.00 0.00 60 1017.6
20260831140046 85 153 0.0 5.0 0.00 0.00 0.00 61 1017.7
20260831135525 85 159 1.0 5.0 0.00 0.00 0.00 63 1017.6
20260831135027 84 0 1.0 4.0 0.00 0.00 0.00 64 1017.6
20260831134544 83 145 1.0 4.0 0.00 0.00 0.00 65 1017.6
20260831134022 83 153 0.0 4.0 0.00 0.00 0.00 65 1017.4
20260831133521 83 171 0.0 4.0 0.00 0.00 0.00 66 1017.4
20260831133047 82 184 0.0 5.0 0.00 0.00 0.00 67 1017.3
20260831132524 82 197 1.0 5.0 0.00 0.00 0.00 67 1017.2
20260831132026 82 136 0.0 4.0 0.00 0.00 0.00 68 1017.3
20260831131547 81 0 0.0 3.0 0.00 0.00 0.00 68 1017.2
20260831131024 81 0 0.0 3.0 0.00 0.00 0.00 69 1017.1
20260831130521 80 0 0.0 4.0 0.00 0.00 0.00 70 1017.2
20260831130052 80 0 0.0 4.0 0.00 0.00 0.00 71 1017.0
20260831125523 80 164 0.0 3.0 0.00 0.00 0.00 71 1016.9
20260831125025 80 145 0.0 5.0 0.00 0.00 0.00 71 1016.8
20260831124550 79 0 1.0 5.0 0.00 0.00 0.00 71 1016.8
20260831124024 79 163 0.0 4.0 0.00 0.00 0.00 72 1016.7
20260831123524 79 134 1.0 3.0 0.00 0.00 0.00 71 1016.7
20260831123048 79 190 0.0 2.0 0.00 0.00 0.00 71 1016.6
20260831122527 79 0 0.0 2.0 0.00 0.00 0.00 71 1016.5
20260831122021 79 165 0.0 2.0 0.00 0.00 0.00 71 1016.4
20260831121544 79 171 0.0 2.0 0.00 0.00 0.00 71 1016.3
20260831121026 79 184 1.0 3.0 0.00 0.00 0.00 71 1016.3
20260831120525 79 0 0.0 3.0 0.00 0.00 0.00 72 1016.2
20260831120056 79 0 0.0 1.0 0.00 0.00 0.00 71 1016.2
20260831115529 79 0 0.0 1.0 0.00 0.00 0.00 71 1016.0
20260831115024 80 0 0.0 1.0 0.00 0.00 0.00 71 1016.0
20260831114547 80 0 0.0 1.0 0.00 0.00 0.00 71 1016.0
20260831114026 80 0 0.0 1.0 0.00 0.00 0.00 70 1015.9
20260831113524 80 0 0.0 1.0 0.00 0.00 0.00 70 1015.9
20260831113107 80 214 0.0 1.0 0.00 0.00 0.00 70 1015.7
20260831112522 81 0 0.0 1.0 0.00 0.00 0.00 69 1015.7
20260831112024 81 0 0.0 1.0 0.00 0.00 0.00 69 1015.7
20260831111546 81 214 0.0 1.0 0.00 0.00 0.00 68 1015.6
20260831111024 81 214 0.0 2.0 0.00 0.00 0.00 68 1015.7
20260831110524 81 214 0.0 2.0 0.00 0.00 0.00 68 1015.4
20260831110047 81 212 0.0 2.0 0.00 0.00 0.00 68 1015.4
20260831105526 81 0 0.0 2.0 0.00 0.00 0.00 68 1015.4
20260831105024 81 178 0.0 2.0 0.00 0.00 0.00 68 1015.4
20260831104544 81 0 0.0 2.0 0.00 0.00 0.00 67 1015.4
20260831104025 81 0 0.0 3.0 0.00 0.00 0.00 68 1015.3
20260831103526 81 215 0.0 3.0 0.00 0.00 0.00 68 1015.4
20260831103051 81 191 0.0 1.0 0.00 0.00 0.00 68 1015.4
20260831102524 82 0 0.0 2.0 0.00 0.00 0.00 66 1015.4
20260831102025 82 0 0.0 2.0 0.00 0.00 0.00 66 1015.5
20260831101548 82 0 0.0 3.0 0.00 0.00 0.00 65 1015.5
20260831101025 82 0 0.0 3.0 0.00 0.00 0.00 65 1015.4
20260831100523 82 220 1.0 4.0 0.00 0.00 0.00 65 1015.3
20260831100043 83 0 1.0 4.0 0.00 0.00 0.00 64 1015.3
20260831095522 83 197 1.0 4.0 0.00 0.00 0.00 64 1015.3
20260831095024 83 316 1.0 4.0 0.00 0.00 0.00 64 1015.3
20260831094556 83 194 0.0 3.0 0.00 0.00 0.00 63 1015.2
20260831094024 83 173 0.0 4.0 0.00 0.00 0.00 63 1015.2
20260831093525 83 215 1.0 4.0 0.00 0.00 0.00 62 1015.2
20260831093050 83 0 0.0 2.0 0.00 0.00 0.00 61 1015.2
20260831092525 83 187 0.0 3.0 0.00 0.00 0.00 61 1015.1
20260831092023 83 210 1.0 4.0 0.00 0.00 0.00 61 1015.0
20260831091547 83 0 1.0 4.0 0.00 0.00 0.00 61 1015.0
20260831091023 83 0 0.0 4.0 0.00 0.00 0.00 60 1015.0
20260831090523 83 144 0.0 4.0 0.00 0.00 0.00 59 1014.9
20260831090056 83 0 0.0 4.0 0.00 0.00 0.00 59 1014.9
20260831085525 83 0 1.0 4.0 0.00 0.00 0.00 58 1014.8
20260831085025 83 186 1.0 2.0 0.00 0.00 0.00 58 1014.7
20260831084547 83 207 0.0 6.0 0.00 0.00 0.00 57 1014.7
20260831084026 83 0 1.0 6.0 0.00 0.00 0.00 57 1014.8
20260831083525 83 0 0.0 2.0 0.00 0.00 0.00 56 1014.8
20260831083045 83 208 0.0 2.0 0.00 0.00 0.00 56 1014.7
20260831082526 83 0 0.0 2.0 0.00 0.00 0.00 56 1014.7
20260831082023 83 0 0.0 2.0 0.00 0.00 0.00 56 1014.7
20260831081547 83 186 0.0 2.0 0.00 0.00 0.00 55 1014.7
20260831081025 84 237 0.0 3.0 0.00 0.00 0.00 55 1014.7
20260831080525 84 211 0.0 3.0 0.00 0.00 0.00 54 1014.7
20260831080049 84 154 1.0 4.0 0.00 0.00 0.00 55 1014.6
20260831075525 83 190 1.0 4.0 0.00 0.00 0.00 56 1014.6
20260831075023 83 201 0.0 4.0 0.00 0.00 0.00 57 1014.5
20260831074547 82 238 0.0 3.0 0.00 0.00 0.00 58 1014.5
20260831074024 82 219 0.0 3.0 0.00 0.00 0.00 59 1014.5
20260831073525 82 166 0.0 3.0 0.00 0.00 0.00 58 1014.5
20260831073046 82 0 0.0 1.0 0.00 0.00 0.00 58 1014.5
20260831072522 82 0 0.0 0.0 0.00 0.00 0.00 57 1014.5
20260831072027 83 0 0.0 0.0 0.00 0.00 0.00 59 1014.5
20260831071553 83 0 0.0 0.0 0.00 0.00 0.00 57 1014.4
20260831071027 83 0 0.0 1.0 0.00 0.00 0.00 57 1014.5
20260831070526 83 0 0.0 1.0 0.00 0.00 0.00 57 1014.5
20260831070048 83 0 0.0 0.0 0.00 0.00 0.00 57 1014.5
20260831065525 83 0 0.0 0.0 0.00 0.00 0.00 56 1014.6
20260831065025 83 0 0.0 0.0 0.00 0.00 0.00 56 1014.5
20260831064547 84 0 0.0 0.0 0.00 0.00 0.00 55 1014.5
20260831064023 84 0 0.0 1.0 0.00 0.00 0.00 55 1014.6
20260831063523 84 0 0.0 1.0 0.00 0.00 0.00 55 1014.6
20260831063043 84 0 0.0 3.0 0.00 0.00 0.00 54 1014.6
20260831062523 84 0 0.0 3.0 0.00 0.00 0.00 54 1014.7
20260831062026 84 0 0.0 2.0 0.00 0.00 0.00 54 1014.6
20260831061548 84 171 0.0 3.0 0.00 0.00 0.00 55 1014.6
20260831061028 84 0 0.0 3.0 0.00 0.00 0.00 55 1014.6
20260831060524 84 203 0.0 2.0 0.00 0.00 0.00 54 1014.5
20260831060052 84 197 0.0 3.0 0.00 0.00 0.00 55 1014.6
20260831055527 84 198 0.0 3.0 0.00 0.00 0.00 55 1014.7
20260831055024 84 178 0.0 3.0 0.00 0.00 0.00 55 1014.6
20260831054543 84 211 0.0 3.0 0.00 0.00 0.00 55 1014.7
20260831054028 84 0 0.0 3.0 0.00 0.00 0.00 54 1014.8
20260831053523 84 0 0.0 3.0 0.00 0.00 0.00 53 1014.8
20260831053042 84 139 0.0 3.0 0.00 0.00 0.00 53 1014.8
20260831052524 84 145 0.0 1.0 0.00 0.00 0.00 53 1014.7
20260831052025 85 145 0.0 1.0 0.00 0.00 0.00 53 1014.6
20260831051554 85 0 0.0 1.0 0.00 0.00 0.00 54 1014.6
20260831051023 85 0 0.0 1.0 0.00 0.00 0.00 53 1014.5
20260831050523 85 0 0.0 1.0 0.00 0.00 0.00 52 1014.5
20260831050045 85 0 0.0 1.0 0.00 0.00 0.00 55 1014.4
20260831045523 85 145 0.0 1.0 0.00 0.00 0.00 52 1014.5
20260831045023 85 0 0.0 1.0 0.00 0.00 0.00 52 1014.5
20260831044547 85 145 0.0 1.0 0.00 0.00 0.00 52 1014.5
20260831044025 85 144 0.0 1.0 0.00 0.00 0.00 53 1014.5
20260831043524 85 0 0.0 1.0 0.00 0.00 0.00 52 1014.5
20260831043047 85 141 0.0 1.0 0.00 0.00 0.00 52 1014.6
20260831042529 85 0 0.0 1.0 0.00 0.00 0.00 52 1014.6
20260831042024 85 0 0.0 1.0 0.00 0.00 0.00 54 1014.6
20260831041548 86 0 0.0 1.0 0.00 0.00 0.00 52 1014.5
20260831041024 86 0 0.0 1.0 0.00 0.00 0.00 51 1014.6
20260831040523 86 0 0.0 1.0 0.00 0.00 0.00 50 1014.6
20260831040044 86 0 0.0 1.0 0.00 0.00 0.00 50 1014.6
20260831035528 86 0 0.0 1.0 0.00 0.00 0.00 50 1014.6
20260831035026 86 0 0.0 1.0 0.00 0.00 0.00 50 1014.6
20260831034549 86 0 0.0 1.0 0.00 0.00 0.00 52 1014.6
20260831034026 86 0 0.0 2.0 0.00 0.00 0.00 50 1014.4
20260831033525 87 0 0.0 3.0 0.00 0.00 0.00 51 1014.4
20260831033043 87 0 0.0 3.0 0.00 0.00 0.00 51 1014.3
20260831032523 87 0 0.0 2.0 0.00 0.00 0.00 51 1014.3
20260831032022 87 0 0.0 2.0 0.00 0.00 0.00 51 1014.3
20260831031541 87 151 0.0 4.0 0.00 0.00 0.00 51 1014.2
20260831031024 87 167 1.0 4.0 0.00 0.00 0.00 51 1014.2
20260831030527 88 159 0.0 3.0 0.00 0.00 0.00 50 1014.2
20260831030047 88 0 0.0 3.0 0.00 0.00 0.00 49 1014.2
20260831025525 88 167 0.0 3.0 0.00 0.00 0.00 48 1014.3
20260831025025 88 159 0.0 3.0 0.00 0.00 0.00 48 1014.2
20260831024545 89 149 0.0 3.0 0.00 0.00 0.00 46 1014.1
20260831024023 89 180 0.0 2.0 0.00 0.00 0.00 47 1014.1
20260831023522 89 162 1.0 4.0 0.00 0.00 0.00 46 1014.0
20260831023041 89 0 1.0 7.0 0.00 0.00 0.00 46 1013.9
20260831022523 89 167 1.0 7.0 0.00 0.00 0.00 44 1013.9
20260831022024 89 176 1.0 3.0 0.00 0.00 0.00 44 1013.9
20260831021548 90 190 0.0 4.0 0.00 0.00 0.00 44 1013.7
20260831021025 90 146 1.0 4.0 0.00 0.00 0.00 43 1013.7
20260831020524 90 147 0.0 4.0 0.00 0.00 0.00 42 1013.7
20260831020052 91 194 1.0 4.0 0.00 0.00 0.00 41 1013.6
20260831015525 91 175 1.0 5.0 0.00 0.00 0.00 41 1013.5
20260831015023 91 191 1.0 5.0 0.00 0.00 0.00 41 1013.4
20260831014543 91 149 1.0 2.0 0.00 0.00 0.00 41 1013.5
20260831014024 91 0 0.0 4.0 0.00 0.00 0.00 40 1013.3
20260831013523 91 165 0.0 4.0 0.00 0.00 0.00 41 1013.3
20260831013101 91 0 0.0 4.0 0.00 0.00 0.00 40 1013.2
20260831012527 92 0 0.0 2.0 0.00 0.00 0.00 39 1013.2
20260831012024 92 177 0.0 4.0 0.00 0.00 0.00 39 1013.3
20260831011549 92 203 1.0 4.0 0.00 0.00 0.00 38 1013.3
20260831011024 92 165 0.0 4.0 0.00 0.00 0.00 38 1013.1
20260831010525 93 190 1.0 4.0 0.00 0.00 0.00 38 1013.1
20260831010051 93 179 1.0 5.0 0.00 0.00 0.00 38 1013.0
20260831005523 93 163 2.0 5.0 0.00 0.00 0.00 37 1013.1
20260831005026 94 194 1.0 5.0 0.00 0.00 0.00 37 1013.1
20260831004543 94 191 1.0 5.0 0.00 0.00 0.00 37 1013.0
20260831004030 94 155 1.0 4.0 0.00 0.00 0.00 37 1012.9
20260831003529 94 157 1.0 6.0 0.00 0.00 0.00 37 1012.9
20260831003046 95 165 2.0 6.0 0.00 0.00 0.00 36 1013.0
20260831002524 95 96 1.0 7.0 0.00 0.00 0.00 36 1013.1
20260831002026 95 184 2.0 9.0 0.00 0.00 0.00 36 1013.0
20260831001544 95 156 3.0 9.0 0.00 0.00 0.00 36 1013.0
20260831001023 96 155 3.0 7.0 0.00 0.00 0.00 35 1013.0
20260831000523 96 16 2.0 8.0 0.00 0.00 0.00 36 1013.1
20260831000044 96 159 2.0 8.0 0.00 0.00 0.00 36 1013.1
20260830235525 96 172 1.0 8.0 0.00 0.00 0.00 36 1013.2
20260830235026 96 160 2.0 8.0 0.00 0.00 0.00 35 1013.2
20260830234553 96 192 2.0 8.0 0.00 0.00 0.00 34 1013.2
20260830234024 96 0 2.0 10.0 0.00 0.00 0.00 34 1013.2
20260830233525 97 171 3.0 10.0 0.00 0.00 0.00 34 1013.2
20260830233045 97 142 3.0 7.0 0.00 0.00 0.00 35 1013.2
20260830232530 96 188 3.0 7.0 0.00 0.00 0.00 35 1013.2
20260830232025 96 152 1.0 10.0 0.00 0.00 0.00 35 1013.3
20260830231543 96 163 2.0 10.0 0.00 0.00 0.00 34 1013.3
20260830231025 97 197 1.0 8.0 0.00 0.00 0.00 34 1013.3
20260830230524 97 144 2.0 9.0 0.00 0.00 0.00 33 1013.3
20260830230040 98 184 3.0 9.0 0.00 0.00 0.00 32 1013.3
20260830225525 98 200 1.0 5.0 0.00 0.00 0.00 32 1013.2
20260830225025 98 147 1.0 5.0 0.00 0.00 0.00 31 1013.3
20260830224547 98 179 1.0 7.0 0.00 0.00 0.00 32 1013.2
20260830224025 98 179 1.0 7.0 0.00 0.00 0.00 31 1013.4
20260830223526 98 139 1.0 8.0 0.00 0.00 0.00 32 1013.4
20260830223107 99 169 2.0 8.0 0.00 0.00 0.00 30 1013.5
20260830222523 99 162 2.0 10.0 0.00 0.00 0.00 30 1013.5
20260830222022 100 135 1.0 10.0 0.00 0.00 0.00 29 1013.5
20260830221547 101 168 3.0 8.0 0.00 0.00 0.00 29 1013.4
20260830221024 100 151 2.0 7.0 0.00 0.00 0.00 32 1013.5
20260830220524 98 148 3.0 8.0 0.00 0.00 0.00 33 1013.3
20260830220050 98 106 2.0 8.0 0.00 0.00 0.00 33 1013.5
20260830215527 98 128 1.0 7.0 0.00 0.00 0.00 33 1013.5
20260830215025 98 144 1.0 11.0 0.00 0.00 0.00 33 1013.5
20260830214548 99 201 1.0 11.0 0.00 0.00 0.00 33 1013.5
20260830214023 100 147 2.0 9.0 0.00 0.00 0.00 33 1013.6
20260830213521 100 144 2.0 10.0 0.00 0.00 0.00 32 1013.7
20260830213045 101 188 2.0 10.0 0.00 0.00 0.00 31 1013.7
20260830212525 103 186 3.0 9.0 0.00 0.00 0.00 30 1013.7
20260830212021 103 145 2.0 9.0 0.00 0.00 0.00 30 1013.7
20260830211547 104 162 2.0 7.0 0.00 0.00 0.00 29 1013.8
20260830211024 103 186 1.0 6.0 0.00 0.00 0.00 29 1013.9
20260830210524 103 0 1.0 8.0 0.00 0.00 0.00 30 1013.8
20260830210048 102 171 2.0 8.0 0.00 0.00 0.00 30 1013.9
20260830205528 101 153 2.0 7.0 0.00 0.00 0.00 31 1013.9
20260830205023 101 168 1.0 9.0 0.00 0.00 0.00 31 1014.0
20260830204549 103 196 3.0 10.0 0.00 0.00 0.00 30 1013.9
20260830204023 101 163 3.0 10.0 0.00 0.00 0.00 31 1014.1
20260830203524 101 205 1.0 8.0 0.00 0.00 0.00 31 1014.2
20260830203050 102 184 1.0 8.0 0.00 0.00 0.00 32 1014.3
20260830202524 101 192 2.0 5.0 0.00 0.00 0.00 32 1014.4
20260830202025 102 171 1.0 8.0 0.00 0.00 0.00 31 1014.4
20260830201552 102 188 1.0 8.0 0.00 0.00 0.00 31 1014.4
20260830201025 103 210 2.0 12.0 0.00 0.00 0.00 30 1014.5